Flag for Japan Weather past 2 weeks in Kumamoto, Japan

Now
61 °F

Passing clouds.


Feels Like: 61 °F
Forecast: 56 / 71 °F
Wind: 1 mph from North

Location: Saga Airport


UV Index: 5 (Moderate)

Visibility: 5 mi


Pressure: 30.01 "Hg

Humidity: 77%

Dew point: 54 °F

Location of KumamotoLocation

Historic Weather in Kumamoto

°F

Kumamoto temperature yesterday

Maximum temperature yesterday: 64 °F (at 2:00 PM)
Minimum temperature yesterday: 48 °F (at 6:00 AM)
Average temperature yesterday: 58 °F

Past Weeks' High & Low Weather Summary

 TemperatureHumidityPressure
High73 °F (Apr 2, 4:00 PM)100% (Apr 10, 7:00 AM)30.18 "Hg (Apr 10, 7:00 AM)
Low36 °F (Apr 7, 4:00 AM)25% (Apr 14, 2:00 PM)29.71 "Hg (Apr 4, 2:00 AM)
Average55 °F69%30.00 "Hg
* Reported Apr 2 8:00 AM — Apr 17 8:00 AM, Kumamoto, Weather by CustomWeather, © 2014

Note: Actual official high and low records may vary slightly from our data, if they occured in-between our weather recording intervals... More about our weather records

Advertising

Historic Weather Conditions — Data for Previous 24 hours

 ConditionsComfort  
Time TempWeatherWind HumidityBarometerVisibility
8:00 AM
Apr 17
55 °FClear.5 mph82%30.01 "Hg5 mi
7:00 AM52 °FClear.3 mph94%30.01 "Hg4 mi
6:00 AM48 °FClear.3 mph87%30.01 "Hg5 mi
4:00 AM48 °FPassing clouds.6 mph94%30.01 "HgN/A
3:00 AM52 °FClear.6 mph88%30.01 "Hg10 mi
2:00 AM52 °FClear.3 mph88%30.01 "Hg10 mi
1:00 AM50 °FClear.1 mph94%30.01 "Hg10 mi
12:00 AM57 °FClear.5 mph82%30.01 "Hg10 mi
11:00 PM
Apr 16
57 °FClear.3 mph82%30.01 "Hg10 mi
9:00 PM61 °FClear.2 mph68%30.01 "Hg5 mi
8:00 PM63 °FClear.5 mph64%30.01 "Hg5 mi
7:00 PM63 °FClear.7 mph73%29.98 "Hg5 mi
6:00 PM63 °FSunny.9 mph77%29.98 "Hg10 mi
5:00 PM64 °FSunny.10 mph68%29.98 "Hg10 mi
4:00 PM64 °FSunny.10 mph68%29.98 "Hg10 mi
3:00 PM64 °FSunny.8 mph68%29.98 "Hg10 mi
2:00 PM64 °FPassing clouds.6 mph68%30.01 "HgN/A
1:00 PM63 °FPassing clouds.6 mph73%30.01 "HgN/A
12:00 PM63 °FSunny.2 mph68%30.04 "Hg10 mi
11:00 AM61 °FPartly sunny.5 mph68%30.07 "HgN/A
10:00 AM59 °FPassing clouds.5 mph77%30.07 "HgN/A
Weather by CustomWeather, © 2014

See weather overview